Weather History for Los Alamitos, CA

Change the Weather History Date:

Friday, October 25, 2013

  Actual Average Record
Temperature  
Mean Temperature 62 °F -  
Max Temperature 71 °F 73 °F 86 °F (1999)
Min Temperature 53 °F 58 °F 49 °F (2012)
Degree Days  
Heating Degree Days 3    
Growing Degree Days 12 (Base 50)    
Moisture  
Dew Point 58 °F    
Average Humidity 87    
Maximum Humidity 100    
Minimum Humidity 52    
Precipitation  
Precipitation 0.00 in - - ()
Sea Level Pressure  
Sea Level Pressure 30.08 in    
Wind  
Wind Speed 2 mph (West)    
Max Wind Speed 9 mph    
Max Gust Speed -    
Visibility 7 miles    
Events      
Averages and records for this station are not official NWS values.
T = Trace of Precipitation, MM = Missing Value Source: NWS Daily Summary

Daily Weather History Graph

Daily Weather History Graph

Search for Another Location

Airport:

Trip Planner

Search our weather history database for the weather conditions in past years. The results will help you decide how hot, cold, wet, or windy it might be!

Date:

Astronomy

Oct. 25, 2013 Rise Set
Actual Time 7:05 AM PDT 6:06 PM PDT
Civil Twilight 6:40 AM PDT 6:31 PM PDT
Nautical Twilight 6:10 AM PDT 7:01 PM PDT
Astronomical Twilight 5:41 AM PDT 7:30 PM PDT
Moon 11:34 PM PDT (10/25) 12:44 PM PDT (10/25)
Length of Visible Light 11h 51m
Length of Day
11h 00m
Waning Gibbous, 61% of the Moon is Illuminated
Oct 25
Waning Gibbous
Oct 26
Last Quarter
Nov 3
New
Nov 9
First Quarter
Nov 17
Full

Hourly Weather History & Observations

Time (PDT) Temp. Dew Point Humidity Pressure Visibility Wind Dir Wind Speed Gust Speed Precip Events Conditions
12:48 AM 55.4 °F 55.4 °F 100% 30.05 in 2.0 mi Calm Calm - N/A   Clear
12:58 AM 55.2 °F 55.2 °F 100% 30.07 in 5.0 mi Calm Calm - 0.00 in   Clear
1:18 AM 53.6 °F 53.6 °F 100% 30.06 in 5.0 mi Calm Calm - N/A   Mostly Cloudy
1:58 AM 55.9 °F 55.9 °F 100% 30.08 in 8.0 mi Calm Calm - N/A   Overcast
2:58 AM 58.6 °F 58.6 °F 100% 30.08 in 10.0 mi Calm Calm - N/A   Overcast
3:58 AM 59.7 °F 59.7 °F 100% 30.07 in 9.0 mi ENE 2.3 mph - N/A   Overcast
4:58 AM 61.2 °F 60.8 °F 99% 30.08 in 10.0 mi NE 1.2 mph - N/A   Overcast
5:58 AM 61.0 °F 60.4 °F 98% 30.10 in 8.0 mi SW 3.5 mph - N/A   Overcast
6:58 AM 61.0 °F 60.4 °F 98% 30.10 in 9.0 mi ENE 2.3 mph - N/A   Overcast
7:58 AM 61.2 °F 60.1 °F 96% 30.11 in 6.0 mi North 4.6 mph - N/A   Overcast
8:58 AM 61.7 °F 59.9 °F 94% 30.12 in 5.0 mi NNE 2.3 mph - N/A   Overcast
9:58 AM 62.1 °F 59.9 °F 93% 30.14 in 5.0 mi North 2.3 mph - N/A   Overcast
10:58 AM 62.8 °F 59.2 °F 88% 30.12 in 5.0 mi Calm Calm - N/A   Overcast
11:58 AM 66.7 °F 55.2 °F 66% 30.12 in 5.0 mi Variable 3.5 mph - N/A   Haze
12:03 PM 68.0 °F 53.6 °F 60% 30.11 in 5.0 mi West 4.6 mph - N/A   Haze
12:58 PM 69.4 °F 54.0 °F 58% 30.09 in 6.0 mi SSW 8.1 mph - N/A   Haze
1:58 PM 71.1 °F 52.7 °F 52% 30.07 in 8.0 mi SSW 5.8 mph - N/A   Clear
2:58 PM 70.3 °F 53.2 °F 55% 30.04 in 10.0 mi SSW 9.2 mph - N/A   Clear
3:58 PM 68.7 °F 55.2 °F 62% 30.03 in 10.0 mi South 5.8 mph - N/A   Clear
4:58 PM 68.5 °F 56.3 °F 65% 30.02 in 10.0 mi SSW 8.1 mph - N/A   Clear
5:58 PM 65.7 °F 60.8 °F 84% 30.02 in 10.0 mi SSW 5.8 mph - N/A   Clear
6:58 PM 63.7 °F 61.0 °F 91% 30.04 in 9.0 mi NW 5.8 mph - N/A   Clear
7:58 PM 61.3 °F 61.3 °F 100% 30.05 in 8.0 mi NW 3.5 mph - N/A   Clear
8:58 PM 60.6 °F 60.6 °F 100% 30.06 in 7.0 mi WNW 5.8 mph - N/A   Clear
9:58 PM 59.9 °F 59.9 °F 100% 30.06 in 6.0 mi North 3.5 mph - N/A   Clear
10:58 PM 58.1 °F 58.1 °F 100% 30.08 in 5.0 mi West 3.5 mph - N/A   Clear
11:58 PM 58.8 °F 58.8 °F 100% 30.08 in 7.0 mi WNW 2.3 mph - N/A   Clear